When you browse on this site, cookies collect data to enhance your experience and personalize the content and advertising you see.
Visit our Privacy Policy to learn more. By continuing to use the site, you agree to this use of cookies and data.
  • In Hungary
  • List of Countries
  • For 7 days
  • Water Temperature
  • Satellite Maps
  • Weather Map
  • News
  • Weather Widgets
  • user-avatar
    Login

    Hourly Weather Pien

    Today, 19 May, Sunday

    Time Temperature Precipitation Wind Pressure Humidity
    00:00 +15°C° 0 mm 2 mps 751 mmHg 93%
    01:00 +15°C° 0 mm 2 mps 751 mmHg 95%
    02:00 +15°C° 0 mm 2 mps 751 mmHg 95%
    03:00 +15°C° 0 mm 2 mps 751 mmHg 96%
    04:00 +14°C° 0 mm 2 mps 751 mmHg 96%
    05:00 +16°C° 0 mm 2 mps 751 mmHg 93%
    06:00 +17°C° 0 mm 2 mps 751 mmHg 90%
    07:00 +18°C° 0 mm 3 mps 751 mmHg 87%
    08:00 +19°C° 0.8 mm 3 mps 751 mmHg 83%
    09:00 +20°C° 0.8 mm 4 mps 750 mmHg 80%
    10:00 +21°C° 0.8 mm 5 mps 750 mmHg 77%
    11:00 +22°C° 0.7 mm 4 mps 750 mmHg 75%
    12:00 +22°C° 0.7 mm 4 mps 750 mmHg 74%
    13:00 +22°C° 0.7 mm 3 mps 750 mmHg 73%
    14:00 +24°C° 0.1 mm 3 mps 749 mmHg 71%
    15:00 +24°C° 0.1 mm 3 mps 749 mmHg 69%
    16:00 +24°C° 0.1 mm 2 mps 749 mmHg 67%
    17:00 +23°C° 0 mm 2 mps 748 mmHg 73%
    18:00 +21°C° 0 mm 2 mps 748 mmHg 79%
    19:00 +20°C° 0 mm 2 mps 748 mmHg 85%
    20:00 +19°C° 0 mm 2 mps 748 mmHg 88%
    21:00 +18°C° 0 mm 2 mps 748 mmHg 91%
    22:00 +17°C° 0 mm 2 mps 748 mmHg 95%
    23:00 +17°C° 0 mm 2 mps 748 mmHg 95%

    Tomorrow, 20 May, Monday

    Time Temperature Precipitation Wind Pressure Humidity
    00:00 +17°C° 0 mm 2 mps 748 mmHg 95%
    01:00 +16°C° 0 mm 2 mps 748 mmHg 95%
    02:00 +16°C° 0 mm 2 mps 748 mmHg 96%
    03:00 +16°C° 0 mm 2 mps 748 mmHg 96%
    04:00 +15°C° 0 mm 2 mps 748 mmHg 96%
    05:00 +17°C° 0 mm 3 mps 748 mmHg 92%
    06:00 +18°C° 0 mm 3 mps 748 mmHg 88%
    07:00 +19°C° 0 mm 4 mps 748 mmHg 83%
    08:00 +21°C° 0 mm 4 mps 748 mmHg 76%
    09:00 +23°C° 0 mm 4 mps 748 mmHg 70%
    10:00 +26°C° 0 mm 5 mps 748 mmHg 63%
    11:00 +25°C° 0.9 mm 5 mps 748 mmHg 68%
    12:00 +25°C° 0.9 mm 5 mps 747 mmHg 73%
    13:00 +24°C° 0.9 mm 6 mps 747 mmHg 78%
    14:00 +23°C° 1.8 mm 5 mps 747 mmHg 79%
    15:00 +23°C° 1.8 mm 5 mps 747 mmHg 80%
    16:00 +23°C° 1.8 mm 5 mps 747 mmHg 81%
    17:00 +22°C° 0.3 mm 4 mps 747 mmHg 83%
    18:00 +21°C° 0.3 mm 3 mps 747 mmHg 85%
    19:00 +21°C° 0.3 mm 2 mps 747 mmHg 87%
    20:00 +20°C° 0 mm 2 mps 747 mmHg 88%
    21:00 +19°C° 0 mm 2 mps 747 mmHg 90%
    22:00 +19°C° 0 mm 1 mps 747 mmHg 91%
    23:00 +18°C° 0 mm 1 mps 748 mmHg 91%

    Day after tomorrow, 21 May, Tuesday

    Time Temperature Precipitation Wind Pressure Humidity
    00:00 +18°C° 0 mm 1 mps 748 mmHg 90%
    01:00 +16°C° 0 mm 1 mps 748 mmHg 90%
    02:00 +15°C° 0 mm 0 mps 748 mmHg 90%
    03:00 +15°C° 0 mm 0 mps 748 mmHg 91%
    04:00 +14°C° 0 mm 0 mps 748 mmHg 91%
    05:00 +16°C° 0.1 mm 0 mps 748 mmHg 88%
    06:00 +17°C° 0.1 mm 0 mps 748 mmHg 86%
    07:00 +18°C° 0.1 mm 0 mps 748 mmHg 83%
    08:00 +19°C° 0.3 mm 0 mps 748 mmHg 79%
    09:00 +22°C° 0.3 mm 1 mps 748 mmHg 75%
    10:00 +23°C° 0.3 mm 1 mps 748 mmHg 72%
    11:00 +24°C° 0.8 mm 1 mps 748 mmHg 70%
    12:00 +24°C° 0.8 mm 1 mps 748 mmHg 68%
    13:00 +24°C° 0.8 mm 2 mps 748 mmHg 66%
    14:00 +23°C° 2.2 mm 2 mps 748 mmHg 71%
    15:00 +23°C° 2.2 mm 2 mps 748 mmHg 77%
    16:00 +21°C° 2.2 mm 2 mps 748 mmHg 82%
    17:00 +20°C° 0.8 mm 2 mps 748 mmHg 84%
    18:00 +19°C° 0.8 mm 2 mps 748 mmHg 86%
    19:00 +19°C° 0.8 mm 2 mps 748 mmHg 89%
    20:00 +18°C° 0.8 mm 2 mps 748 mmHg 91%
    21:00 +17°C° 0.8 mm 2 mps 748 mmHg 93%
    22:00 +16°C° 0.8 mm 2 mps 748 mmHg 95%
    23:00 +15°C° 0.3 mm 1 mps 748 mmHg 95%

    22 May, Wednesday

    Time Temperature Precipitation Wind Pressure Humidity
    00:00 +15°C° 0.3 mm 1 mps 748 mmHg 96%
    01:00 +14°C° 0.3 mm 1 mps 748 mmHg 96%
    02:00 +14°C° 0.4 mm 1 mps 748 mmHg 96%
    03:00 +14°C° 0.4 mm 1 mps 749 mmHg 97%
    04:00 +14°C° 0.4 mm 1 mps 749 mmHg 97%
    05:00 +15°C° 0.1 mm 1 mps 749 mmHg 94%
    06:00 +16°C° 0.1 mm 1 mps 749 mmHg 90%
    07:00 +18°C° 0.1 mm 1 mps 749 mmHg 87%
    08:00 +19°C° 0.5 mm 1 mps 749 mmHg 83%
    09:00 +20°C° 0.5 mm 1 mps 749 mmHg 79%
    10:00 +22°C° 0.5 mm 1 mps 749 mmHg 74%
    11:00 +22°C° 1 mm 1 mps 749 mmHg 72%
    12:00 +23°C° 1 mm 2 mps 749 mmHg 70%
    13:00 +23°C° 1 mm 2 mps 749 mmHg 68%
    14:00 +23°C° 0.7 mm 1 mps 749 mmHg 67%
    15:00 +23°C° 0.7 mm 1 mps 749 mmHg 66%
    16:00 +21°C° 0.7 mm 0 mps 749 mmHg 66%
    17:00 +20°C° 0.7 mm 0 mps 749 mmHg 71%
    18:00 +19°C° 0.7 mm 0 mps 750 mmHg 77%
    19:00 +18°C° 0.7 mm 0 mps 750 mmHg 82%
    20:00 +19°C° 0 mm 1 mps 750 mmHg 85%
    21:00 +18°C° 0 mm 1 mps 750 mmHg 87%
    22:00 +16°C° 0 mm 1 mps 750 mmHg 90%
    23:00 +16°C° 0.1 mm 2 mps 751 mmHg 92%

    23 May, Thursday

    Time Temperature Precipitation Wind Pressure Humidity
    00:00 +15°C° 0.1 mm 2 mps 751 mmHg 94%
    01:00 +14°C° 0.1 mm 3 mps 751 mmHg 96%
    02:00 +14°C° 0.3 mm 3 mps 751 mmHg 96%
    03:00 +14°C° 0.3 mm 4 mps 752 mmHg 96%
    04:00 +14°C° 0.3 mm 4 mps 752 mmHg 96%
    05:00 +14°C° 0.1 mm 4 mps 752 mmHg 95%
    06:00 +13°C° 0.1 mm 4 mps 753 mmHg 94%
    07:00 +13°C° 0.1 mm 5 mps 753 mmHg 93%
    08:00 +13°C° 0.1 mm 4 mps 754 mmHg 90%
    09:00 +13°C° 0.1 mm 4 mps 754 mmHg 87%
    10:00 +13°C° 0.1 mm 4 mps 755 mmHg 84%
    11:00 +14°C° 0 mm 4 mps 755 mmHg 77%
    12:00 +15°C° 0 mm 5 mps 755 mmHg 69%
    13:00 +16°C° 0 mm 5 mps 755 mmHg 62%
    14:00 +16°C° 0 mm 5 mps 755 mmHg 60%
    15:00 +16°C° 0 mm 5 mps 755 mmHg 57%
    16:00 +17°C° 0 mm 5 mps 755 mmHg 55%
    17:00 +17°C° 0 mm 4 mps 756 mmHg 60%
    18:00 +14°C° 0 mm 4 mps 756 mmHg 65%
    19:00 +13°C° 0 mm 4 mps 756 mmHg 71%
    20:00 +12°C° 0 mm 3 mps 756 mmHg 75%
    21:00 +10°C° 0 mm 3 mps 756 mmHg 80%
    22:00 +9°C° 0 mm 2 mps 756 mmHg 84%
    23:00 +9°C° 0 mm 3 mps 756 mmHg 86%

    24 May, Friday

    Time Temperature Precipitation Wind Pressure Humidity
    00:00 +8°C° 0 mm 3 mps 756 mmHg 89%
    01:00 +8°C° 0 mm 3 mps 756 mmHg 91%
    02:00 +7°C° 0 mm 3 mps 756 mmHg 92%
    03:00 +7°C° 0 mm 2 mps 756 mmHg 93%
    04:00 +7°C° 0 mm 2 mps 756 mmHg 94%
    05:00 +9°C° 0 mm 2 mps 756 mmHg 88%
    06:00 +12°C° 0 mm 2 mps 755 mmHg 81%
    07:00 +13°C° 0 mm 2 mps 755 mmHg 75%
    08:00 +15°C° 0 mm 2 mps 755 mmHg 69%
    09:00 +16°C° 0 mm 2 mps 755 mmHg 63%
    10:00 +18°C° 0 mm 2 mps 754 mmHg 57%
    11:00 +19°C° 0 mm 1 mps 754 mmHg 55%
    12:00 +20°C° 0 mm 1 mps 753 mmHg 54%
    13:00 +20°C° 0 mm 1 mps 753 mmHg 53%
    14:00 +20°C° 0 mm 1 mps 752 mmHg 54%
    15:00 +20°C° 0 mm 1 mps 752 mmHg 55%
    16:00 +20°C° 0 mm 1 mps 751 mmHg 56%
    17:00 +19°C° 0 mm 1 mps 751 mmHg 61%
    18:00 +18°C° 0 mm 1 mps 750 mmHg 65%
    19:00 +16°C° 0 mm 2 mps 750 mmHg 70%
    20:00 +15°C° 0 mm 2 mps 749 mmHg 73%
    21:00 +13°C° 0 mm 2 mps 749 mmHg 77%
    22:00 +12°C° 0 mm 2 mps 749 mmHg 80%
    23:00 +10°C° 0 mm 3 mps 748 mmHg 82%
    Show more